星链-2095 (STARLINK-2095 )

导读

STARLINK-2095是美国SpaceX公司星链星座的成员,于2021年2月16日发射升空,是星链低轨互联网星座组网进程中的一颗卫星。星链星座旨在为全球提供覆盖广泛的低延迟宽带互联网服务,该卫星承担星座部分通信组网任务,运行在近地轨道,服务全球互联网接入布局。

基本信息
目录编号:
47679
目录名称:
STARLINK-2095
国际标识:
2021-012BM
轨道中心:
EARTH
卫星名称:
星链-2095
卫星全名:
星链-2095 (STARLINK-2095 )
卫星状态:
已陨落 最后检测时间 2026-04-20
发射日期:
2021-02-16 UTC
国别 :
美国 (US)
星等 :
--
该卫星已列入 空间交会检测服务 Space Conjunction Data Service (SCDS) ,当前飞行风险评估等级: 无高风险
轨道信息
数据来源 国际轨道数据
星历时间: 2026-04-20T21:47:54+0800
轨道信息已过期143天
半长轴: 6562.544km
偏心率: 0.0003483
轨道倾角: 53.002°
近地点辐角 334.225°
升交点赤经 133.949°
平近点角 25.862°
近地点: 182.121km
远地点: 186.693km
周期: 88.180分钟
每日圈数: 16.330312
详细信息
固有亮度:
5
最大亮度:
2.5
卫星平台:
Starlink V1.0
覆盖范围:
全球
运营商:
太空探索技术公司
运营商所在国:
美国
制造商(研发单位):
太空探索技术公司
制造商所在国:
美国
使用方式:
暂无
卫星简介
星链(Starlink)计划是由太空探索技术公司(SpaceX)提出的一个巨型低轨卫星互联网星座项目,计划在2019年至2024年间在太空搭建由约1.2万颗卫星组成的“星链”网络,其中1584颗将部署在地球上空550千米处的近地轨道,并从2020年开始工作。该卫星仍在工作。
与全量物体交会距离演化趋势
与全量物体交会风险概率演化趋势